Terminal Aerodrome Forecast
Issued by NWS Memphis, TN

Home | Current Version | Previous Version | Text Only | Print | Product List | Glossary On
Versions: 1 2 3 4 5 6 7 8 9 10 11 12 13 14 15 16 17 18 19 20 21 22 23 24 25
000
FTUS44 KMEG 302300
TAFMEM
TAF
KMEM 302331Z 3100/3124 02003KT P6SM BKN070 OVC200
     FM310600 03002KT P6SM VCSH OVC060
     FM311500 23005KT P6SM SCT060 OVC100=

USA.gov is the U.S. government's official web portal to all federal, state and local government web resources and services.